CAPE
0 0 0 0 0 0 0 0 0 0 0 0 0 0 0 0 0 0 0 0 0 0 0 0 0 0 2 2 3 5 5 4 4 6 5 7 11 14
0 0 0 0 0 0 0 0 0 0 0 0 0 0 0 0 0 0 0 0 0 0 0 0 0 2 1 1 3 3 1 2 2 2 4 6 11 27
0 0 0 0 0 0 0 0 0 0 0 0 0 0 0 0 0 0 0 0 0 0 0 1 0 0 0 0 1 1 1 0 0 1 3 9 14 13
0 0 0 0 0 0 0 0 0 0 0 0 0 0 0 0 0 0 0 0 0 0 0 0 0 0 0 0 0 0 0 0 0 2 4 14 4 19
0 0 0 0 0 0 0 0 0 0 0 0 0 0 0 0 0 0 0 0 0 0 0 0 0 0 0 0 0 0 0 0 0 5 19 6 5 8
0 0 0 0 0 0 0 0 0 0 0 0 0 0 0 0 0 0 0 0 0 0 0 0 0 0 0 0 0 0 0 2 5 8 7 11 8 14
0 0 0 0 0 0 0 0 0 0 0 0 0 0 0 0 0 0 0 0 0 0 0 0 0 0 0 0 0 0 2 2 5 4 1 3 4 4
0 0 0 0 0 0 0 0 0 0 0 0 0 0 0 0 0 0 0 0 0 0 0 0 0 0 0 0 0 1 3 3 5 6 6 3 7 18
0 0 0 0 0 0 0 0 0 0 0 0 0 0 0 0 0 0 0 0 0 0 0 0 0 0 0 0 0 0 0 1 2 2 5 5 9 16
0 0 0 0 0 0 0 0 0 0 0 0 0 0 0 0 0 0 0 0 0 0 0 0 0 0 0 0 0 0 0 0 0 1 6 6 10 3
0 0 0 0 0 0 0 0 0 0 1 2 1 1 2 0 0 0 0 0 0 0 0 0 0 0 0 0 0 0 0 0 0 0 3 5 7 6
0 0 0 0 0 0 0 0 0 0 0 0 0 0 0 0 0 0 0 0 0 0 0 0 0 0 0 0 0 0 0 0 0 0 0 0 2 5
0 0 0 0 0 0 0 0 0 0 0 0 0 0 0 0 0 0 0 0 0 0 0 1 0 0 0 0 0 0 0 0 0 0 0 0 1 4
0 0 0 1 0 0 0 0 0 0 0 0 0 0 0 0 0 0 0 0 0 0 0 0 0 0 0 1 0 0 0 0 0 0 0 0 0 0
0 0 0 0 0 0 1 1 0 0 0 0 0 0 0 0 0 0 0 0 0 0 0 0 0 0 0 1 1 1 0 0 0 0 0 1 1 0
0 0 0 0 0 0 0 0 0 0 0 0 0 0 0 0 0 0 0 0 0 0 0 0 0 0 0 0 0 0 0 0 0 0 1 2 0 0
0 0 0 0 0 0 0 0 0 0 0 0 0 0 0 0 0 0 0 0 0 0 0 0 0 0 0 0 0 0 0 0 0 0 1 0 0 0
0 0 0 0 0 0 0 0 0 0 0 0 0 0 0 0 0 0 0 0 0 0 0 0 0 0 0 0 0 0 0 0 0 1 1 0 0 0
0 0 0 0 0 0 0 0 0 0 0 0 0 0 0 0 0 0 0 0 0 0 0 0 0 0 0 0 0 0 0 0 0 0 0 0 0 0
0 0 0 0 0 0 0 0 0 0 0 0 0 0 0 0 0 0 0 0 0 0 0 0 0 0 0 0 0 0 0 0 0 0 0 0 0 0
0 0 0 0 0 0 0 0 0 0 0 0 0 0 0 0 0 0 0 0 0 0 0 0 0 0 0 0 0 0 0 0 0 0 0 0 0 0
0 0 0 0 0 0 0 0 0 0 0 0 0 0 0 0 0 0 0 0 0 0 0 0 0 0 0 0 0 0 0 0 0 0 0 0 0 0
0 0 0 0 0 0 0 0 0 0 0 0 0 0 0 0 0 0 0 0 0 0 0 0 0 0 0 0 0 0 0 0 0 0 0 0 0 0
CIN
0 0 0 0 0 0 0 0 0 0 0 0 0 0 0 0 0 0 0 0 0 0 0 0 0 0 0 0 0 -1 0 0 0 -1 0 -1 -1 -1
0 0 0 0 0 0 0 0 0 0 0 0 0 0 0 0 0 0 0 0 0 0 0 0 0 0 0 -1 -1 0 0 -1 -1 -1 -1 -1 -1 -1
0 0 0 0 0 0 0 0 0 0 0 0 0 0 0 0 0 0 0 0 0 0 0 0 0 0 0 0 0 -1 -1 -1 -1 -1 -1 -1 -1 -1
0 0 0 0 0 0 0 0 0 0 0 0 0 0 0 0 0 0 0 0 0 0 0 0 0 0 0 0 0 0 0 0 0 -1 -1 -1 -2 0
0 0 0 0 0 0 0 0 0 0 0 0 0 0 0 0 0 0 0 0 0 0 0 0 0 0 0 0 0 0 0 0 0 0 -1 -1 -1 -1
0 0 0 0 0 0 0 0 0 0 0 0 0 0 0 0 0 0 0 0 0 0 0 0 0 0 0 0 0 0 0 -1 -1 -1 -1 -1 -1 -1
0 0 0 0 0 0 0 0 0 0 0 0 0 0 0 0 0 0 0 0 0 0 0 0 0 0 0 0 0 0 0 0 -1 -2 -2 -2 -3 -3
0 0 0 0 0 0 0 0 0 0 0 0 0 0 0 0 0 0 0 0 0 0 0 0 0 0 0 0 0 0 0 -1 -1 0 -1 -2 -2 -1
0 0 0 0 0 0 0 0 0 0 0 0 0 0 0 0 0 0 0 0 0 0 0 0 0 0 0 0 0 0 -1 -1 -1 -1 -1 -1 -2 -2
0 0 0 0 0 0 0 0 0 0 0 0 0 0 0 0 0 0 0 0 0 0 0 0 0 0 0 0 0 0 0 0 0 -1 -1 -1 -2 -3
0 0 0 0 0 0 0 0 0 0 -1 0 0 0 0 0 0 0 0 0 0 0 0 0 0 0 0 0 0 0 0 0 0 0 -1 -1 -1 -1
0 0 0 0 0 0 0 0 0 0 0 0 0 0 0 0 0 0 0 0 0 0 0 0 0 0 0 0 0 0 0 0 0 0 0 -1 -1 -1
0 0 0 0 0 0 0 0 0 0 0 0 0 0 0 0 0 0 0 0 0 0 0 -1 0 0 0 0 0 0 0 0 0 0 0 0 -1 0
0 0 0 0 0 0 0 0 0 0 0 0 0 0 0 0 0 0 0 0 0 0 0 0 0 0 0 0 0 0 0 0 0 0 0 0 0 -1
0 0 0 -1 0 0 0 0 0 0 0 0 0 0 0 0 0 0 0 0 0 0 0 0 0 0 0 0 0 0 0 0 0 0 0 0 0 0
0 0 0 0 0 0 0 0 0 0 0 0 0 0 0 0 0 0 0 0 0 0 0 0 0 0 0 0 0 0 0 0 0 0 0 -1 0 0
0 0 0 0 0 0 0 0 0 0 0 0 0 0 0 0 0 -3 0 0 0 0 0 0 0 0 0 0 0 0 0 0 0 0 -1 -1 0 0
0 0 0 0 0 0 0 0 0 0 0 0 0 0 0 0 0 0 0 0 0 0 0 0 0 0 0 0 0 0 0 0 0 0 -1 -1 0 0
0 0 0 0 0 0 0 0 0 0 0 -3 -3 -4 -4 0 0 0 0 0 0 0 0 0 0 0 0 0 0 0 0 0 0 0 0 0 0 0
0 0 0 0 0 0 0 0 0 0 -2 -1 0 -1 0 0 -1 0 0 0 0 0 0 0 0 0 0 0 0 0 0 0 0 0 0 0 0 0
0 0 0 0 0 0 0 0 0 -2 0 0 0 0 0 -3 0 0 0 0 0 0 0 0 0 0 0 0 0 0 0 0 0 0 0 0 0 0
0 0 0 0 0 0 0 0 -1 -1 -1 0 0 0 0 0 0 0 0 0 0 0 0 0 0 0 0 0 0 0 0 0 0 0 0 -1 0 0
0 0 0 0 0 0 0 0 0 0 -1 0 0 0 0 0 0 0 0 0 0 0 0 0 0 0 0 0 0 0 0 0 0 0 0 0 0 0
Wind_Speed
25 23 21 19 19 18 17 14 17 20 20 16 17 16 17 21 23 26 28 31 33 34 33 32 32 32 31 33 34 34 35 36 37 38 40 41 43 43
27 22 24 20 17 17 16 15 19 18 19 17 18 16 16 19 22 26 29 31 31 32 32 31 31 31 33 33 33 34 37 38 39 39 40 41 43 44
17 17 18 18 15 13 12 15 16 16 18 19 17 16 19 21 24 26 28 28 31 31 30 29 32 32 33 33 34 36 38 39 40 40 40 42 43 46
17 15 15 14 12 12 12 14 15 17 17 20 19 20 21 22 24 26 28 28 31 28 26 30 33 34 34 34 35 37 39 39 39 40 41 41 43 46
12 13 13 11 12 8 10 11 13 15 18 17 19 19 20 22 24 26 28 29 30 26 25 33 34 35 34 35 38 38 39 39 39 39 42 45 45 45
10 8 9 11 12 8 8 10 12 14 12 13 17 18 20 22 24 26 29 30 30 24 27 35 34 34 34 38 38 38 37 39 38 40 44 44 44 44
7 5 6 6 6 8 10 10 10 12 13 15 17 19 21 23 25 25 26 30 28 25 32 33 34 33 37 37 36 36 38 38 39 42 42 43 43 43
4 2 2 2 5 8 9 9 10 11 14 17 17 19 21 22 23 26 29 31 31 27 34 34 31 35 36 36 37 36 37 39 41 40 42 42 42 41
4 2 4 5 6 7 8 9 12 15 16 14 16 19 20 21 23 27 29 30 31 31 33 33 31 37 37 36 34 36 38 40 39 41 40 42 41 41
1 2 2 2 4 6 8 12 13 14 15 17 18 18 20 21 23 24 27 29 29 28 30 33 35 37 38 34 32 36 39 39 39 40 42 41 39 42
2 3 4 5 6 7 8 10 12 15 16 17 19 20 20 22 23 26 30 33 34 32 28 34 34 39 36 33 32 36 37 37 40 40 39 40 41 43
2 3 4 5 6 7 9 11 13 15 16 18 20 22 23 24 25 26 28 32 33 33 28 36 35 39 40 32 37 37 36 37 38 39 38 42 42 39
3 3 5 7 8 9 11 12 14 15 17 18 20 22 23 24 26 27 27 28 31 29 28 33 34 37 35 40 37 36 36 38 37 36 37 39 39 38
3 4 6 8 10 11 12 14 15 16 18 20 22 23 25 26 26 27 26 26 26 26 28 30 33 36 37 41 39 36 38 38 35 36 38 38 36 35
5 7 9 10 11 12 14 15 17 18 19 21 23 24 24 24 26 26 26 27 28 27 29 30 32 33 34 36 35 37 41 38 35 39 37 37 32 27
9 9 10 11 13 14 15 17 17 19 20 22 22 23 23 25 27 26 29 31 31 31 31 30 32 32 34 32 31 31 33 37 37 33 33 31 21 20
9 10 11 12 13 14 16 17 18 18 21 22 23 24 25 26 27 28 29 31 33 35 36 34 32 31 29 28 29 28 30 31 30 28 28 27 14 15
9 10 11 12 13 14 15 16 18 19 21 22 22 23 25 27 28 30 29 32 34 35 35 33 34 37 35 30 25 27 28 30 29 27 26 19 12 13
9 10 11 12 13 14 15 17 18 19 20 21 22 24 25 27 29 30 31 32 33 33 33 31 33 36 39 39 31 27 20 28 29 29 23 11 10 11
10 10 11 12 13 14 15 16 18 19 19 20 22 24 26 27 29 30 31 31 31 30 31 31 32 34 34 32 31 24 27 26 29 25 12 10 8 7
10 11 12 12 13 14 15 16 17 18 19 21 23 25 26 27 28 28 29 29 29 29 31 30 28 26 27 26 30 29 29 19 18 19 8 8 10 14
10 12 12 12 13 14 15 16 18 19 20 22 23 24 25 26 26 26 27 27 27 26 25 23 26 29 31 32 30 24 17 21 13 7 6 10 10 15
11 11 12 13 13 14 15 16 18 20 21 21 23 23 24 24 24 24 24 24 25 24 26 27 27 28 28 27 23 16 20 18 13 8 10 13 12 16
Wind_Direction
253 257 264 272 275 282 282 280 286 292 290 297 300 303 306 309 315 320 324 326 327 327 330 331 332 333 334 334 334 333 333 332 331 330 329 328 327 325
256 258 262 270 279 280 282 282 287 294 296 300 300 308 315 316 321 325 326 326 330 332 332 334 336 336 334 334 334 334 334 333 332 331 329 328 327 326
255 256 261 264 277 287 289 286 289 295 295 305 311 315 316 317 321 324 327 330 331 332 335 338 337 336 335 335 335 334 334 333 332 331 330 328 327 325
252 253 255 267 281 285 287 291 293 296 302 302 309 311 317 322 325 328 328 331 333 336 340 339 337 336 336 336 336 334 334 333 332 331 330 329 328 326
246 249 258 265 274 291 291 303 311 313 313 309 310 319 324 328 328 329 332 335 337 340 342 338 338 338 339 338 336 335 335 334 333 333 332 329 328 327
240 244 259 264 263 287 301 317 328 329 333 330 324 326 329 328 332 334 334 338 339 344 342 339 341 341 341 338 337 337 337 336 334 333 332 331 330 329
232 252 272 283 302 304 308 327 338 332 332 334 331 329 328 331 334 340 341 341 343 347 342 342 342 343 342 341 340 339 338 338 336 334 334 333 332 331
224 239 274 338 329 324 326 343 331 335 335 332 333 333 335 338 344 343 340 340 340 350 344 343 348 344 344 344 342 342 341 339 338 337 336 335 334 333
189 220 276 302 308 325 338 346 343 338 336 347 345 341 342 347 346 342 342 342 342 346 346 344 349 344 345 344 345 345 343 341 340 339 338 336 335 335
242 281 293 344 345 356 355 347 349 351 353 352 353 354 353 355 353 353 349 348 349 351 352 345 348 345 346 347 348 347 345 345 343 341 339 339 338 336
268 292 309 330 349 359 3 9 355 349 353 359 1 1 4 2 0 356 350 347 346 349 354 348 347 345 347 349 350 349 348 347 344 344 344 342 340 339
349 357 350 8 18 3 0 2 354 353 356 358 358 359 0 360 0 360 356 350 350 349 355 348 348 349 345 350 348 348 348 348 347 346 346 343 343 344
63 16 345 349 351 354 3 356 351 2 2 3 1 1 2 1 359 359 359 356 352 350 350 350 348 347 347 343 347 348 349 348 348 350 349 347 346 347
41 359 354 4 5 2 356 6 10 8 6 1 358 357 358 359 0 0 1 359 357 351 351 352 348 347 345 343 345 349 350 349 352 351 351 349 351 351
35 27 33 20 9 9 14 12 8 8 5 359 358 359 3 4 3 3 2 360 357 357 356 355 350 348 348 346 346 348 347 351 353 351 353 352 355 357
55 31 25 16 14 17 10 6 10 10 5 2 2 4 6 4 1 3 359 359 358 356 357 356 354 353 350 351 351 351 354 351 351 355 356 355 358 1
50 21 16 12 10 9 3 7 11 11 3 4 3 4 3 2 0 1 0 359 356 354 354 356 358 357 356 355 356 357 356 356 357 357 360 360 351 3
28 27 18 23 13 8 10 10 7 5 4 4 5 4 2 1 0 0 1 358 356 356 356 358 358 358 360 5 6 360 1 360 360 2 5 4 338 358
9 22 24 20 18 17 12 8 5 5 9 7 5 3 2 1 0 360 359 358 358 359 0 3 3 1 357 358 4 11 357 3 4 6 11 355 334 339
12 27 23 20 17 13 10 9 7 7 6 5 4 2 2 0 360 360 360 0 1 2 4 6 7 5 4 4 2 3 11 10 9 11 357 321 355 311
22 22 21 21 19 14 12 10 9 6 5 3 1 0 1 1 0 1 2 4 5 5 3 7 11 12 11 12 10 11 14 19 23 22 343 340 20 299
14 14 19 20 16 13 13 11 6 4 1 359 359 359 1 1 2 3 4 5 6 7 10 14 14 14 13 13 14 17 16 25 27 14 27 50 35 296
8 15 16 12 15 12 8 5 2 360 358 359 358 360 2 3 4 5 7 7 7 10 11 12 16 18 20 22 24 23 30 32 31 341 326 319 312 305